Weather History for Marietta, GA

Change the Weather History Date:

Saturday, February 9, 2013

  Actual Average Record
Temperature  
Mean Temperature 46 °F -  
Max Temperature 62 °F 52 °F 75 °F (2001)
Min Temperature 30 °F 34 °F 23 °F (2011)
Degree Days  
Heating Degree Days 19    
Moisture  
Dew Point 29 °F    
Average Humidity 60    
Maximum Humidity 92    
Minimum Humidity 25    
Precipitation  
Precipitation 0.00 in - - ()
Sea Level Pressure  
Sea Level Pressure 30.25 in    
Wind  
Wind Speed 5 mph (North)    
Max Wind Speed 8 mph    
Max Gust Speed -    
Visibility 10 miles    
Events      
Averages and records for this station are not official NWS values.
T = Trace of Precipitation, MM = Missing Value Source: NWS Daily Summary

Daily Weather History Graph

Daily Weather History Graph

Search for Another Location

Airport:

Trip Planner

Search our weather history database for the weather conditions in past years. The results will help you decide how hot, cold, wet, or windy it might be!

Date:

Astronomy

Feb. 09, 2013 Rise Set
Actual Time 7:28 AM EST 6:16 PM EST
Civil Twilight 7:02 AM EST 6:42 PM EST
Nautical Twilight 6:32 AM EST 7:12 PM EST
Astronomical Twilight 6:03 AM EST 7:41 PM EST
Moon 6:39 AM EST (2/9) 5:56 PM EST (2/9)
Length of Visible Light 11h 40m
Length of Day
10h 48m
Waning Crescent, 0% of the Moon is Illuminated
Feb 9
Waning Crescent
Feb 10
New
Feb 17
First Quarter
Feb 25
Full
Mar 4
Last Quarter

Hourly Weather History & Observations

Time (EST) Temp. Windchill Dew Point Humidity Pressure Visibility Wind Dir Wind Speed Gust Speed Precip Events Conditions
12:55 AM 35.8 °F 30.9 °F 31.1 °F 83% 30.18 in 10.0 mi NW 5.8 mph - N/A   Clear
1:55 AM 35.2 °F 29.5 °F 31.1 °F 85% 30.20 in 10.0 mi WNW 6.9 mph - N/A   Clear
2:55 AM 34.7 °F 28.1 °F 31.3 °F 87% 30.21 in 10.0 mi NW 8.1 mph - N/A   Clear
3:55 AM 34.3 °F 28.4 °F 30.7 °F 87% 30.22 in 10.0 mi NW 6.9 mph - N/A   Clear
4:55 AM 33.6 °F 28.4 °F 30.2 °F 87% 30.23 in 10.0 mi WNW 5.8 mph - N/A   Clear
5:55 AM 33.1 °F 26.1 °F 29.8 °F 88% 30.24 in 10.0 mi NW 8.1 mph - N/A   Clear
6:55 AM 32.4 °F 27.9 °F 29.5 °F 89% 30.24 in 10.0 mi NW 4.6 mph - N/A   Partly Cloudy
7:55 AM 30.7 °F 27.3 °F 28.6 °F 92% 30.27 in 10.0 mi West 3.5 mph - N/A   Partly Cloudy
8:55 AM 36.0 °F 33.3 °F 31.3 °F 83% 30.29 in 10.0 mi Variable 3.5 mph - N/A   Partly Cloudy
9:55 AM 42.4 °F 39.6 °F 31.6 °F 66% 30.30 in 10.0 mi North 4.6 mph - N/A   Partly Cloudy
10:55 AM 46.6 °F - 30.6 °F 54% 30.32 in 10.0 mi Calm Calm - N/A   Partly Cloudy
11:55 AM 51.6 °F - 29.1 °F 42% 30.30 in 10.0 mi Calm Calm - N/A   Partly Cloudy
12:55 PM 55.8 °F - 28.4 °F 35% 30.28 in 10.0 mi Calm Calm - N/A   Partly Cloudy
1:55 PM 58.8 °F - 25.5 °F 28% 30.25 in 10.0 mi Calm Calm - N/A   Partly Cloudy
2:55 PM 61.5 °F - 26.2 °F 26% 30.22 in 10.0 mi SE 5.8 mph - N/A   Partly Cloudy
3:55 PM 62.1 °F - 25.7 °F 25% 30.21 in 10.0 mi SE 5.8 mph - N/A   Partly Cloudy
4:55 PM 61.5 °F - 25.0 °F 25% 30.22 in 10.0 mi SE 5.8 mph - N/A   Partly Cloudy
5:55 PM 58.5 °F - 24.1 °F 27% 30.23 in 10.0 mi SE 6.9 mph - N/A   Partly Cloudy
6:55 PM 51.6 °F - 29.3 °F 42% 30.25 in 10.0 mi SE 3.5 mph - N/A   Partly Cloudy
7:55 PM 49.8 °F - 29.7 °F 46% 30.26 in 10.0 mi ESE 4.6 mph - N/A   Partly Cloudy
8:55 PM 48.4 °F - 28.8 °F 47% 30.26 in 10.0 mi East 3.5 mph - N/A   Partly Cloudy
9:55 PM 45.9 °F - 31.5 °F 57% 30.26 in 10.0 mi Calm Calm - N/A   Partly Cloudy
10:55 PM 43.2 °F - 32.0 °F 65% 30.26 in 10.0 mi Calm Calm - N/A   Scattered Clouds
11:55 PM 44.2 °F 42.7 °F 33.3 °F 65% 30.26 in 10.0 mi ENE 3.5 mph - N/A   Scattered Clouds